Wink, TX

1:27 AM CST on February 06, 2016 (GMT -0600)
Winkler County

Weather History for KINK - August, 2014

Change the Weather History Date:

Thursday, August 21, 2014

  Actual Average (WUND) Record (WUND)
Temperature  
Mean Temperature 88 °F -  
Max Temperature 100 °F - - (-1)
Min Temperature 75 °F - - (-1)
Cooling Degree Days 22    
Growing Degree Days 38 (Base 50)    
Moisture  
Dew Point 60 °F    
Average Humidity 45    
Maximum Humidity 69    
Minimum Humidity 19    
Precipitation  
Precipitation 0.00 in - - ()
Sea Level Pressure  
Sea Level Pressure 29.84 in    
Wind  
Wind Speed 12 mph (SSE)    
Max Wind Speed 20 mph    
Max Gust Speed 28 mph    
Visibility 10 miles    
Events Thunderstorm    
Averages and records for this station are not official NWS values.
T = Trace of Precipitation, MM = Missing Value Source: NWS Daily Summary

Daily Weather History Graph

Daily Weather History Graph

Search for Another Location

Airport or City:

Trip Planner

Search our weather history database for the weather conditions in past years. The results will help you decide how hot, cold, wet, or windy it might be!

Date:

Astronomy

Aug. 21, 2014 Rise Set
Actual Time 7:21 AM CDT 8:29 PM CDT
Civil Twilight 6:56 AM CDT 8:55 PM CDT
Nautical Twilight 6:26 AM CDT 9:25 PM CDT
Astronomical Twilight 5:54 AM CDT 9:56 PM CDT
Moon 3:59 AM CDT (8/21) 5:55 PM CDT (8/21)
Length of Visible Light 13h 58m
Length of Day
13h 08m
Waning Crescent, 13% of the Moon is Illuminated
Aug 21
Waning Crescent
Aug 25
New
Sep 2
First Quarter
Sep 8
Full
Sep 15
Last Quarter

Hourly Weather History & Observations

Time (CDT) Temp. Heat Index Dew Point Humidity Pressure Visibility Wind Dir Wind Speed Gust Speed Precip Events Conditions
12:53 AM 81.0 °F 82.2 °F 63.0 °F 54% 29.79 in 10.0 mi SSE 12.7 mph - N/A   Clear
1:53 AM 79.0 °F - 63.0 °F 58% 29.78 in 10.0 mi SE 12.7 mph - N/A   Clear
2:53 AM 79.0 °F - 64.0 °F 60% 29.78 in 10.0 mi SSE 10.4 mph - N/A   Clear
3:53 AM 78.1 °F - 64.0 °F 62% 29.77 in 10.0 mi SE 10.4 mph - N/A   Clear
4:53 AM 77.0 °F - 64.0 °F 64% 29.78 in 10.0 mi SSE 9.2 mph - N/A   Clear
5:53 AM 75.9 °F - 64.0 °F 67% 29.79 in 10.0 mi SSE 5.8 mph - N/A   Clear
6:53 AM 75.0 °F - 64.0 °F 69% 29.82 in 10.0 mi SSE 8.1 mph - N/A   Clear
7:53 AM 75.0 °F - 64.0 °F 69% 29.84 in 10.0 mi SE 11.5 mph - N/A   Clear
8:53 AM 78.1 °F - 63.0 °F 60% 29.87 in 10.0 mi SSE 13.8 mph - N/A   Clear
9:53 AM 82.9 °F 84.0 °F 63.0 °F 51% 29.87 in 10.0 mi SSE 13.8 mph - N/A   Clear
10:53 AM 86.0 °F 86.3 °F 62.1 °F 44% 29.86 in 10.0 mi SSE 5.8 mph - N/A   Clear
11:53 AM 91.0 °F 90.5 °F 60.1 °F 35% 29.86 in 10.0 mi SSW 8.1 mph - N/A   Clear
12:53 PM 93.9 °F 91.7 °F 54.0 °F 26% 29.84 in 10.0 mi North - - N/A   Clear
1:53 PM 96.1 °F - 52.0 °F 22% 29.82 in 10.0 mi SSE 5.8 mph - N/A   Clear
2:53 PM 98.1 °F - 52.0 °F 21% 29.79 in 10.0 mi SW 8.1 mph - N/A   Clear
3:53 PM 100.9 °F - 52.0 °F 19% 29.78 in 10.0 mi SSW 15.0 mph - N/A   Clear
4:53 PM 100.0 °F - 52.0 °F 20% 29.76 in 10.0 mi South 8.1 mph - N/A   Clear
5:21 PM 99.0 °F 96.9 °F 54.0 °F 22% 29.91 in 10.0 mi West 9.2 mph 19.6 mph N/A Thunderstorm Clear
5:53 PM 99.0 °F 97.7 °F 55.9 °F 24% 29.75 in 10.0 mi SSE 17.3 mph 26.5 mph N/A Thunderstorm Clear
6:22 PM 93.0 °F 92.3 °F 59.0 °F 32% 29.92 in 10.0 mi ESE 16.1 mph 24.2 mph N/A Thunderstorm Partly Cloudy
6:40 PM 91.0 °F 90.5 °F 60.1 °F 35% 29.92 in 10.0 mi ESE 12.7 mph - N/A   Clear
6:53 PM 93.0 °F 91.7 °F 57.0 °F 30% 29.77 in 10.0 mi SE 19.6 mph 25.3 mph N/A   Clear
7:53 PM 87.1 °F 87.0 °F 61.0 °F 41% 29.81 in 10.0 mi South 19.6 mph 27.6 mph N/A   Clear
8:53 PM 82.9 °F 84.0 °F 63.0 °F 51% 29.84 in 10.0 mi SE 15.0 mph - N/A   Clear
9:20 PM 82.0 °F 83.4 °F 64.0 °F 54% 29.99 in 10.0 mi ESE 12.7 mph - N/A Thunderstorm Clear
9:35 PM 82.0 °F 83.1 °F 63.0 °F 52% 29.99 in 10.0 mi SSE 13.8 mph - N/A   Clear
9:53 PM 82.0 °F 83.4 °F 64.0 °F 54% 29.86 in 10.0 mi ESE 10.4 mph - N/A   Clear
10:53 PM 82.9 °F 84.0 °F 63.0 °F 51% 29.87 in 10.0 mi SSE 15.0 mph - 0.00 in   Clear
11:53 PM 82.0 °F 83.1 °F 63.0 °F 52% 29.86 in 10.0 mi SE 15.0 mph - N/A   Clear